sat.trackr.live / text

‹ back to catalog

RCM-2

NORAD 44324 · 2019-033C

PAYLOAD ACTIVE UNKNOWN

§ Identity

Operator
Country
CA
Launch date
2019-06-12
Launch site
AFWTR
Launch vehicle
Mass (kg)
RCS (m²)

External: N2YO · Heavens-Above · Gunter

§ Orbital elements

Epoch: 2026-09-20T05:46:55.970112Z

Period
96.48 min
Inclination
97.7599°
Eccentricity
0.0001497
Mean motion
14.92591257 rev/d
Perigee alt
588.8 km
Apogee alt
590.9 km
Semi-major
6,968.0 km
B*
6.6555e-5
RAAN
269.3882°
Arg perigee
90.1378°
Mean anomaly
270.0013°
Rev number
39,626

§ Raw data

RCM-21 44324U 19033C   26263.24092558  .00000629  00000+0  66555-4 0  99942 44324  97.7599 269.3882 0001497  90.1378 270.0013 14.92591257396266

JSON: /api/v1/satellites/44324 · /tle

For live sub-satellite position, see the globe view (requires WebGL).

§ Visibility from observer

Set your observer location to see the next 7 days of passes ≥ 10°. The values pass through the URL so the page stays shareable.

No JS? Fill the form by hand. The geolocation button needs JavaScript.